Home > Time Zones > World Clock > Weather > Japan > Kobe > Past weeks

Flag for Japan Weather past 2 weeks in Kobe, Japan

Now
63 °F

Passing clouds.


Feels Like: 63 °F
Forecast: 53 / 68 °F
Wind: 9 mph from Southwest

Location: Osaka International Airport


UV Index: 7 (High)

Visibility: N/A


Pressure: 30.21 "Hg

Humidity: 34%

Dew point: 34 °F

Location of KobeLocation

Historic Weather in Kobe

°F

Kobe temperature yesterday

Maximum temperature yesterday: 72 °F (at 3:00 PM)
Minimum temperature yesterday: 46 °F (at 5:00 AM)
Average temperature yesterday: 62 °F

Past Weeks' High & Low Weather Summary

 TemperatureHumidityPressure
High75 °F (Apr 17, 2:00 PM)88% (Apr 18, 6:00 AM)30.24 "Hg (Apr 18, 6:00 AM)
Low41 °F (Apr 12, 5:00 AM)12% (Apr 24, 3:00 PM)29.83 "Hg (Apr 18, 2:00 PM)
Average60 °F43%30.01 "Hg
* Reported Apr 9 8:00 PM — Apr 24 8:00 PM, Kobe, Weather by CustomWeather, © 2014

Note: Actual official high and low records may vary slightly from our data, if they occured in-between our weather recording intervals... More about our weather records

Advertising

Historic Weather Conditions — Data for Previous 24 hours

 ConditionsComfort  
Time TempWeatherWind HumidityBarometerVisibility
8:00 PM
Apr 24
63 °FPassing clouds.9 mph34%30.21 "HgN/A
7:00 PM63 °FPassing clouds.12 mph32%30.18 "HgN/A
6:00 PM66 °FPassing clouds.14 mph21%30.15 "HgN/A
5:00 PM70 °FPassing clouds.12 mph18%30.15 "HgN/A
4:00 PM73 °FScattered clouds.6 mph13%30.12 "HgN/A
3:00 PM75 °FScattered clouds.2 mph12%30.12 "HgN/A
2:00 PM73 °FScattered clouds.7 mph13%30.15 "HgN/A
1:00 PM73 °FPartly sunny.7 mph14%30.15 "HgN/A
12:00 PM68 °FPassing clouds.5 mph21%30.18 "HgN/A
11:00 AM66 °FSunny.6 mph26%30.21 "Hg10 mi
10:00 AM64 °FSunny.2 mph30%30.24 "Hg10 mi
9:00 AM61 °FSunny.3 mph39%30.21 "Hg10 mi
8:00 AM55 °FPassing clouds.5 mph55%30.21 "HgN/A
7:00 AM52 °FSunny.No wind62%30.21 "Hg10 mi
6:00 AM48 °FPassing clouds.3 mph66%30.18 "HgN/A
5:00 AM46 °FClear.5 mph71%30.18 "Hg10 mi
Weather by CustomWeather, © 2014

See weather overview